| time (UTC) | temp C | wind direction | speed KPH | gust KPH | rain 1hr cm | rain 24hr cm | rain mn cm | humidity % | barometer mb |
| 20260509164605 | 12 | 343 | 9.7 | 24.1 | 0.00 | 0.00 | 0.00 | 72 | 1020.2 |
| 20260509163003 | 15 | 333 | 11.3 | 17.7 | 0.00 | 0.00 | 0.00 | 64 | 1020.2 |
| 20260509161502 | 15 | 220 | 9.7 | 12.9 | 0.00 | 0.00 | 0.00 | 41 | 1020.3 |
| 20260509160100 | 14 | 50 | 1.6 | 9.7 | 0.00 | 0.00 | 0.00 | 59 | 1020.5 |
| 20260509154558 | 15 | 281 | 8.0 | 16.1 | 0.00 | 0.00 | 0.00 | 56 | 1020.6 |
| 20260509153055 | 15 | 233 | 6.4 | 14.5 | 0.00 | 0.00 | 0.00 | 40 | 1020.8 |
| 20260509151557 | 13 | 47 | 8.0 | 14.5 | 0.00 | 0.00 | 0.00 | 59 | 1020.9 |
| 20260509150047 | 12 | 94 | 3.2 | 16.1 | 0.00 | 0.00 | 0.00 | 70 | 1021.0 |
| 20260509144645 | 12 | 62 | 11.3 | 14.5 | 0.00 | 0.00 | 0.00 | 73 | 1021.1 |
| 20260509143054 | 12 | 43 | 9.7 | 17.7 | 0.00 | 0.00 | 0.00 | 73 | 1021.2 |
| 20260509141542 | 12 | 64 | 11.3 | 16.1 | 0.00 | 0.00 | 0.00 | 73 | 1021.5 |
| 20260509140040 | 12 | 40 | 9.7 | 14.5 | 0.00 | 0.00 | 0.00 | 72 | 1021.5 |
| 20260509134559 | 12 | 35 | 14.5 | 17.7 | 0.00 | 0.00 | 0.00 | 71 | 1021.7 |
| 20260509133043 | 12 | 51 | 11.3 | 19.3 | 0.00 | 0.00 | 0.00 | 71 | 1022.1 |
| 20260509131537 | 12 | 51 | 9.7 | 19.3 | 0.00 | 0.00 | 0.00 | 69 | 1022.3 |
| 20260509130044 | 12 | 41 | 11.3 | 17.7 | 0.00 | 0.00 | 0.00 | 68 | 1022.3 |
| 20260509124535 | 12 | 60 | 11.3 | 19.3 | 0.00 | 0.00 | 0.00 | 67 | 1022.6 |
| 20260509123030 | 12 | 32 | 9.7 | 16.1 | 0.00 | 0.00 | 0.00 | 67 | 1022.9 |
| 20260509121541 | 12 | 53 | 9.7 | 16.1 | 0.00 | 0.00 | 0.00 | 64 | 1022.9 |
| 20260509120029 | 12 | 52 | 12.9 | 16.1 | 0.00 | 0.00 | 0.00 | 64 | 1023.0 |
| 20260509114533 | 12 | 31 | 12.9 | 17.7 | 0.00 | 0.00 | 0.00 | 60 | 1023.1 |
| 20260509113032 | 12 | 44 | 12.9 | 20.9 | 0.00 | 0.00 | 0.00 | 62 | 1023.1 |
| 20260509111523 | 11 | 25 | 9.7 | 16.1 | 0.00 | 0.00 | 0.00 | 65 | 1023.3 |
| 20260509110022 | 11 | 40 | 12.9 | 16.1 | 0.00 | 0.00 | 0.00 | 64 | 1023.4 |
| 20260509104535 | 11 | 23 | 14.5 | 20.9 | 0.00 | 0.00 | 0.00 | 63 | 1023.5 |
| 20260509103021 | 11 | 35 | 19.3 | 24.1 | 0.00 | 0.00 | 0.00 | 58 | 1023.4 |
| 20260509101522 | 12 | 50 | 8.0 | 9.7 | 0.00 | 0.00 | 0.00 | 46 | 1023.5 |
| 20260509100017 | 12 | 47 | 6.4 | 8.0 | 0.00 | 0.00 | 0.00 | 45 | 1023.7 |
| 20260509094527 | 12 | 52 | 3.2 | 4.8 | 0.00 | 0.00 | 0.00 | 44 | 1023.7 |
| 20260509093013 | 12 | 89 | 3.2 | 4.8 | 0.00 | 0.00 | 0.00 | 42 | 1023.8 |
| 20260509091514 | 12 | 128 | 3.2 | 9.7 | 0.00 | 0.00 | 0.00 | 45 | 1023.9 |
| 20260509090009 | 12 | 144 | 4.8 | 9.7 | 0.00 | 0.00 | 0.00 | 45 | 1023.9 |
| 20260509084507 | 11 | 98 | 3.2 | 9.7 | 0.00 | 0.00 | 0.00 | 45 | 1024.0 |
| 20260509083003 | 11 | 91 | 4.8 | 9.7 | 0.00 | 0.00 | 0.00 | 51 | 1024.0 |
| 20260509081611 | 11 | 131 | 3.2 | 6.4 | 0.00 | 0.00 | 0.00 | 52 | 1024.1 |
| 20260509080056 | 10 | 115 | 4.8 | 8.0 | 0.00 | 0.00 | 0.00 | 52 | 1024.1 |
| 20260509074557 | 10 | 131 | 4.8 | 9.7 | 0.00 | 0.00 | 0.00 | 53 | 1024.1 |
| 20260509073057 | 10 | 144 | 4.8 | 11.3 | 0.00 | 0.00 | 0.00 | 53 | 1024.2 |
| 20260509071555 | 9 | 125 | 8.0 | 12.9 | 0.00 | 0.00 | 0.00 | 54 | 1024.4 |
| 20260509070047 | 8 | 137 | 8.0 | 12.9 | 0.00 | 0.00 | 0.00 | 57 | 1024.5 |
| 20260509064551 | 8 | 117 | 8.0 | 12.9 | 0.00 | 0.00 | 0.00 | 56 | 1024.5 |
| 20260509063042 | 8 | 146 | 6.4 | 11.3 | 0.00 | 0.00 | 0.00 | 58 | 1024.3 |
| 20260509061537 | 8 | 119 | 9.7 | 14.5 | 0.00 | 0.00 | 0.00 | 59 | 1024.3 |
| 20260509060038 | 8 | 117 | 9.7 | 14.5 | 0.00 | 0.00 | 0.00 | 62 | 1024.2 |
| 20260509054544 | 7 | 115 | 9.7 | 14.5 | 0.00 | 0.00 | 0.00 | 65 | 1024.3 |
| 20260509053033 | 7 | 97 | 8.0 | 12.9 | 0.00 | 0.00 | 0.00 | 67 | 1024.5 |
| 20260509051533 | 7 | 113 | 9.7 | 14.5 | 0.00 | 0.00 | 0.00 | 66 | 1024.4 |
| 20260509050031 | 7 | 108 | 9.7 | 14.5 | 0.00 | 0.00 | 0.00 | 67 | 1024.4 |
| 20260509044529 | 7 | 101 | 8.0 | 14.5 | 0.00 | 0.00 | 0.00 | 66 | 1024.4 |
| 20260509043026 | 7 | 109 | 11.3 | 17.7 | 0.00 | 0.00 | 0.00 | 70 | 1024.3 |
| 20260509041532 | 6 | 111 | 6.4 | 12.9 | 0.00 | 0.00 | 0.00 | 75 | 1024.5 |
| 20260509040020 | 3 | 155 | 0.0 | 3.2 | 0.00 | 0.00 | 0.00 | 75 | 1024.3 |
| 20260509034519 | 3 | 231 | 0.0 | 1.6 | 0.00 | 0.00 | 0.00 | 75 | 1024.4 |
| 20260509033018 | 3 | 236 | 0.0 | 3.2 | 0.00 | 0.00 | 0.00 | 74 | 1024.4 |
| 20260509031516 | 3 | 229 | 0.0 | 3.2 | 0.00 | 0.00 | 0.00 | 74 | 1024.5 |
| 20260509030014 | 3 | 209 | 0.0 | 3.2 | 0.00 | 0.00 | 0.00 | 74 | 1024.5 |
| 20260509024513 | 4 | 233 | 1.6 | 3.2 | 0.00 | 0.00 | 0.00 | 72 | 1024.5 |
| 20260509023012 | 3 | 159 | 1.6 | 4.8 | 0.00 | 0.00 | 0.00 | 74 | 1024.5 |
| 20260509021510 | 3 | 198 | 1.6 | 3.2 | 0.00 | 0.00 | 0.00 | 74 | 1024.7 |
| 20260509020012 | 3 | 221 | 1.6 | 3.2 | 0.00 | 0.00 | 0.00 | 73 | 1025.0 |
| 20260509014512 | 3 | 213 | 0.0 | 3.2 | 0.00 | 0.00 | 0.00 | 73 | 1024.9 |
| 20260509013110 | 3 | 218 | 1.6 | 3.2 | 0.00 | 0.00 | 0.00 | 72 | 1025.0 |
| 20260509011601 | 3 | 226 | 1.6 | 1.6 | 0.00 | 0.00 | 0.00 | 71 | 1025.0 |
| 20260509010059 | 3 | 216 | 0.0 | 1.6 | 0.00 | 0.00 | 0.00 | 70 | 1025.1 |
| 20260509004556 | 3 | 248 | 0.0 | 1.6 | 0.00 | 0.00 | 0.00 | 68 | 1025.1 |
| 20260509003054 | 3 | 242 | 0.0 | 4.8 | 0.00 | 0.00 | 0.00 | 67 | 1025.2 |
| 20260509001550 | 4 | 215 | 1.6 | 3.2 | 0.00 | 0.00 | 0.00 | 66 | 1025.4 |
| 20260509000047 | 4 | 228 | 1.6 | 3.2 | 0.00 | 0.00 | 0.00 | 65 | 1025.3 |
| 20260508234543 | 5 | 238 | 0.0 | 3.2 | 0.00 | 0.00 | 0.00 | 64 | 1025.4 |
| 20260508233040 | 5 | 218 | 1.6 | 3.2 | 0.00 | 0.00 | 0.00 | 62 | 1025.4 |
| 20260508231538 | 6 | 213 | 0.0 | 3.2 | 0.00 | 0.00 | 0.00 | 60 | 1025.6 |
| 20260508230042 | 6 | 212 | 1.6 | 3.2 | 0.00 | 0.00 | 0.00 | 60 | 1025.6 |
| 20260508224535 | 6 | 201 | 3.2 | 4.8 | 0.00 | 0.00 | 0.00 | 58 | 1025.5 |
| 20260508223033 | 6 | 207 | 1.6 | 3.2 | 0.00 | 0.00 | 0.00 | 58 | 1025.5 |
| 20260508221530 | 6 | 196 | 3.2 | 6.4 | 0.00 | 0.00 | 0.00 | 53 | 1025.5 |
| 20260508220029 | 6 | 200 | 3.2 | 4.8 | 0.00 | 0.00 | 0.00 | 58 | 1025.4 |
| 20260508214530 | 6 | 221 | 1.6 | 1.6 | 0.00 | 0.00 | 0.00 | 58 | 1025.3 |
| 20260508213035 | 7 | 214 | 0.0 | 4.8 | 0.00 | 0.00 | 0.00 | 56 | 1025.3 |
| 20260508211534 | 7 | 195 | 3.2 | 3.2 | 0.00 | 0.00 | 0.00 | 50 | 1025.2 |
| 20260508210026 | 8 | 200 | 3.2 | 6.4 | 0.00 | 0.00 | 0.00 | 49 | 1025.3 |
| 20260508204522 | 7 | 200 | 1.6 | 3.2 | 0.00 | 0.00 | 0.00 | 52 | 1025.1 |
| 20260508203021 | 8 | 217 | 0.0 | 3.2 | 0.00 | 0.00 | 0.00 | 52 | 1025.0 |
| 20260508201520 | 8 | 208 | 1.6 | 1.6 | 0.00 | 0.00 | 0.00 | 51 | 1025.0 |
| 20260508200018 | 9 | 155 | 0.0 | 0.0 | 0.00 | 0.00 | 0.00 | 49 | 1024.8 |
| 20260508194528 | 10 | 155 | 0.0 | 1.6 | 0.00 | 0.00 | 0.00 | 41 | 1024.8 |
| 20260508193016 | 10 | 172 | 0.0 | 3.2 | 0.00 | 0.00 | 0.00 | 40 | 1024.6 |
| 20260508191516 | 11 | 165 | 3.2 | 6.4 | 0.00 | 0.00 | 0.00 | 39 | 1024.5 |
| 20260508190014 | 11 | 195 | 4.8 | 8.0 | 0.00 | 0.00 | 0.00 | 38 | 1024.4 |
| 20260508184511 | 12 | 171 | 3.2 | 8.0 | 0.00 | 0.00 | 0.00 | 38 | 1024.2 |
| 20260508183019 | 12 | 204 | 6.4 | 12.9 | 0.00 | 0.00 | 0.00 | 33 | 1024.0 |
| 20260508181510 | 13 | 199 | 8.0 | 16.1 | 0.00 | 0.00 | 0.00 | 33 | 1023.9 |
| 20260508180013 | 13 | 205 | 11.3 | 20.9 | 0.00 | 0.00 | 0.00 | 32 | 1023.7 |
| 20260508174508 | 14 | 131 | 11.3 | 24.1 | 0.00 | 0.00 | 0.00 | 31 | 1023.7 |
| 20260508173006 | 13 | 224 | 12.9 | 22.5 | 0.00 | 0.00 | 0.00 | 34 | 1023.5 |
| 20260508171505 | 14 | 201 | 11.3 | 19.3 | 0.00 | 0.00 | 0.00 | 31 | 1023.5 |
| 20260508170005 | 14 | 233 | 14.5 | 24.1 | 0.00 | 0.00 | 0.00 | 30 | 1023.3 |